Hot Springs, VA

7:57 AM EST on December 17, 2017 (GMT -0500)
Ingalls

Weather History for KHSP - December, 2014

Change the Weather History Date:

Saturday, December 6, 2014

  Actual Average Record
Temperature  
Mean Temperature 42 °F -  
Max Temperature 50 °F 39 °F 66 °F (1998)
Min Temperature 34 °F 26 °F 10 °F (2000)
Degree Days  
Heating Degree Days 23    
Moisture  
Dew Point 45 °F    
Average Humidity 96    
Maximum Humidity 100    
Minimum Humidity 77    
Precipitation  
Precipitation 0.40 in - - ()
Sea Level Pressure  
Sea Level Pressure 30.10 in    
Wind  
Wind Speed 15 mph (WSW)    
Max Wind Speed 22 mph    
Max Gust Speed 33 mph    
Visibility 7 miles    
Events Fog , Rain    
Averages and records for this station are not official NWS values.
T = Trace of Precipitation, MM = Missing Value Source: NWS Daily Summary

Daily Weather History Graph

Daily Weather History Graph

Search for Another Location

Airport or City:

Trip Planner

Search our weather history database for the weather conditions in past years. The results will help you decide how hot, cold, wet, or windy it might be!

Date:

Astronomy

Dec. 06, 2014 Rise Set
Actual Time 7:20 AM EST 4:59 PM EST
Civil Twilight 6:51 AM EST 5:28 PM EST
Nautical Twilight 6:18 AM EST 6:01 PM EST
Astronomical Twilight 5:47 AM EST 6:33 PM EST
Moon 5:33 PM EST (12/6) 7:11 AM EST (12/6)
Length of Visible Light 10h 37m
Length of Day
9h 38m
Full, 100% of the Moon is Illuminated
Dec 6
Full
Dec 14
Last Quarter
Dec 21
New
Dec 28
First Quarter
Jan 4
Full

Hourly Weather History & Observations

Time (EST) Temp. Windchill Dew Point Humidity Pressure Visibility Wind Dir Wind Speed Gust Speed Precip Events Conditions
12:15 AM 47.3 °F - 45.9 °F 95% 30.23 in 10.0 mi SW 12.7 mph - N/A   Overcast
12:35 AM 47.5 °F - 45.5 °F 93% 30.22 in 10.0 mi SW 12.7 mph 16.1 mph N/A   Overcast
12:55 AM 48.0 °F - 45.0 °F 89% 30.22 in 10.0 mi SW 17.3 mph 24.2 mph N/A   Overcast
1:15 AM 48.2 °F - 44.8 °F 88% 30.22 in 10.0 mi SW 17.3 mph 27.6 mph N/A   Mostly Cloudy
1:35 AM 48.7 °F - 43.0 °F 80% 30.22 in 10.0 mi SW 17.3 mph 26.5 mph N/A   Scattered Clouds
1:55 AM 49.3 °F - 43.7 °F 81% 30.21 in 10.0 mi SW 18.4 mph 25.3 mph N/A   Scattered Clouds
2:15 AM 49.1 °F - 44.8 °F 85% 30.21 in 10.0 mi SW 12.7 mph 27.6 mph N/A   Clear
2:35 AM 49.1 °F - 43.7 °F 82% 30.20 in 10.0 mi SW 10.4 mph 24.2 mph N/A   Scattered Clouds
2:55 AM 49.8 °F - 43.7 °F 79% 30.20 in 10.0 mi SW 13.8 mph 20.7 mph N/A   Mostly Cloudy
3:15 AM 48.6 °F - 42.1 °F 78% 30.19 in 10.0 mi SW 16.1 mph 24.2 mph N/A   Overcast
3:35 AM 48.0 °F - 41.2 °F 77% 30.18 in 10.0 mi SW 19.6 mph 32.2 mph N/A   Scattered Clouds
3:55 AM 48.0 °F - 41.0 °F 77% 30.18 in 10.0 mi SW 15.0 mph 27.6 mph N/A   Mostly Cloudy
4:15 AM 47.5 °F - 41.2 °F 79% 30.16 in 10.0 mi SSW 16.1 mph 28.8 mph N/A   Overcast
4:35 AM 47.7 °F - 41.4 °F 79% 30.15 in 10.0 mi SSW 17.3 mph 29.9 mph N/A   Overcast
4:55 AM 47.5 °F - 41.9 °F 81% 30.14 in 10.0 mi SW 18.4 mph 29.9 mph N/A   Overcast
5:15 AM 46.9 °F - 42.4 °F 84% 30.14 in 10.0 mi SSW 13.8 mph 27.6 mph N/A   Overcast
5:35 AM 47.7 °F - 43.3 °F 85% 30.13 in 10.0 mi SW 12.7 mph 25.3 mph N/A   Overcast
5:55 AM 49.1 °F - 44.4 °F 84% 30.13 in 10.0 mi SW 18.4 mph 32.2 mph N/A   Overcast
6:15 AM 48.7 °F - 46.8 °F 93% 30.13 in 10.0 mi SSW 20.7 mph 31.1 mph N/A   Overcast
6:35 AM 48.2 °F - 47.5 °F 97% 30.12 in 10.0 mi SSW 18.4 mph 27.6 mph N/A   Overcast
6:55 AM 47.1 °F - 47.1 °F 100% 30.11 in 10.0 mi SSW 19.6 mph 25.3 mph N/A   Overcast
7:15 AM 48.4 °F - 48.2 °F 99% 30.10 in 10.0 mi SSW 18.4 mph 33.4 mph N/A   Overcast
7:30 AM 48.4 °F - 48.2 °F 99% 30.10 in 10.0 mi SSW 15.0 mph 28.8 mph N/A   Overcast
7:55 AM 48.7 °F - 48.4 °F 99% 30.11 in 10.0 mi SW 18.4 mph 27.6 mph N/A   Overcast
8:15 AM 48.2 °F - 48.2 °F 100% 30.10 in 10.0 mi SW 18.4 mph 24.2 mph N/A   Overcast
8:35 AM 49.1 °F - 49.1 °F 100% 30.10 in 10.0 mi SW 17.3 mph 31.1 mph N/A   Overcast
8:55 AM 49.1 °F - 49.1 °F 100% 30.10 in 10.0 mi SW 18.4 mph 26.5 mph N/A   Overcast
9:15 AM 49.3 °F - 49.3 °F 100% 30.09 in 10.0 mi SSW 17.3 mph 26.5 mph N/A   Overcast
9:35 AM 49.3 °F - 49.3 °F 100% 30.09 in 7.0 mi SW 18.4 mph 33.4 mph N/A Rain Rain
9:55 AM 49.3 °F - 49.3 °F 100% 30.09 in 10.0 mi SW 17.3 mph 26.5 mph N/A   Overcast
10:15 AM 50.4 °F - 50.4 °F 100% 30.08 in 10.0 mi SSW 12.7 mph 26.5 mph N/A   Overcast
10:35 AM 50.2 °F - 50.0 °F 99% 30.07 in 10.0 mi SSW 15.0 mph 23.0 mph N/A   Overcast
10:55 AM 49.8 °F - 49.5 °F 99% 30.08 in 10.0 mi SSW 12.7 mph 19.6 mph N/A   Overcast
11:15 AM 49.3 °F - 49.3 °F 100% 30.07 in 7.0 mi SSW 11.5 mph 21.9 mph 0.01 in Rain Rain
11:35 AM 49.3 °F - 49.3 °F 100% 30.06 in 10.0 mi SW 9.2 mph 19.6 mph 0.02 in Rain Light Rain
11:55 AM 50.0 °F - 50.0 °F 100% 30.05 in 10.0 mi SW 15.0 mph - 0.02 in   Overcast
12:15 PM 50.2 °F - 50.2 °F 100% 30.04 in 10.0 mi WSW 13.8 mph - N/A   Overcast
12:35 PM 50.0 °F - 50.0 °F 100% 30.03 in 10.0 mi SW 11.5 mph - N/A Rain Rain
12:55 PM 50.2 °F - 50.2 °F 100% 30.02 in 10.0 mi WSW 12.7 mph - N/A   Drizzle
1:15 PM 50.0 °F - 50.0 °F 100% 30.01 in 4.0 mi WSW 12.7 mph - 0.01 in Rain Light Rain
1:35 PM 49.6 °F - 49.6 °F 100% 30.00 in 0.2 mi WSW 12.7 mph - 0.02 in Rain Light Rain
1:55 PM 50.0 °F - 50.0 °F 100% 30.00 in 0.2 mi WSW 11.5 mph - 0.03 in Rain Rain
2:15 PM 50.0 °F - 50.0 °F 100% 29.99 in 0.2 mi WSW 16.1 mph 20.7 mph 0.05 in Rain Light Rain
2:35 PM 50.0 °F - 50.0 °F 100% 29.99 in 0.2 mi WSW 16.1 mph 20.7 mph 0.09 in Rain Light Rain
2:55 PM 50.0 °F - 50.0 °F 100% 29.99 in 0.2 mi West 16.1 mph - 0.13 in Rain Light Rain
3:15 PM 50.0 °F - 50.0 °F 100% 29.98 in 0.2 mi WSW 13.8 mph 20.7 mph 0.03 in Rain Light Rain
3:35 PM 50.0 °F - 50.0 °F 100% 29.98 in 0.2 mi WSW 12.7 mph - 0.07 in Rain Rain
3:55 PM 50.0 °F - 50.0 °F 100% 29.98 in 0.2 mi WSW 12.7 mph - 0.11 in Rain Light Rain
4:15 PM 50.0 °F - 50.0 °F 100% 29.98 in 0.2 mi West 10.4 mph - 0.02 in Rain Light Rain
4:35 PM 50.2 °F - 50.2 °F 100% 29.99 in 0.2 mi WSW 12.7 mph - 0.04 in Rain Rain
4:55 PM 50.0 °F - 50.0 °F 100% 29.99 in 0.2 mi West 11.5 mph - 0.05 in Rain Heavy Rain
5:15 PM 50.0 °F - 50.0 °F 100% 29.99 in 0.2 mi West 12.7 mph 18.4 mph N/A   Heavy Drizzle
5:35 PM 50.0 °F - 50.0 °F 100% 30.00 in 0.2 mi West 12.7 mph 18.4 mph 0.03 in Rain Rain
5:55 PM 49.1 °F - 49.1 °F 100% 30.01 in 0.2 mi NW 16.1 mph 21.9 mph 0.06 in Rain Rain
6:15 PM 47.3 °F - 47.3 °F 100% 30.02 in 0.2 mi NW 17.3 mph 21.9 mph N/A Rain Rain
6:35 PM 44.1 °F 36.5 °F 44.1 °F 100% 30.04 in 0.2 mi NW 17.3 mph 23.0 mph N/A   Unknown
6:55 PM 41.7 °F 32.6 °F 41.7 °F 100% 30.06 in 1.5 mi NNW 20.7 mph 25.3 mph N/A   Overcast
7:15 PM 40.6 °F 32.0 °F 40.6 °F 100% 30.08 in 0.8 mi NW 17.3 mph 23.0 mph N/A   Overcast
7:35 PM 40.3 °F 31.6 °F 40.3 °F 100% 30.09 in 1.0 mi NNW 17.3 mph 25.3 mph N/A   Overcast
7:55 PM 39.4 °F 30.7 °F 39.4 °F 100% 30.10 in 10.0 mi NNW 16.1 mph 25.3 mph N/A   Overcast
8:15 PM 38.8 °F 29.4 °F 38.8 °F 100% 30.10 in 10.0 mi NNW 18.4 mph 24.2 mph N/A   Overcast
8:35 PM 38.3 °F 27.8 °F 38.3 °F 100% 30.10 in 10.0 mi NNW 21.9 mph 28.8 mph N/A   Overcast
8:55 PM 37.6 °F 27.1 °F 37.6 °F 100% 30.11 in 10.0 mi NNW 20.7 mph 26.5 mph N/A   Overcast
9:15 PM 37.4 °F 28.2 °F 37.4 °F 100% 30.12 in 10.0 mi NNW 16.1 mph 25.3 mph N/A   Overcast
9:35 PM 36.7 °F 27.2 °F 36.7 °F 100% 30.13 in 10.0 mi NNW 16.1 mph 23.0 mph N/A   Overcast
9:55 PM 36.5 °F 26.7 °F 36.5 °F 100% 30.15 in 10.0 mi NNW 17.3 mph 25.3 mph N/A   Overcast
10:15 PM 35.8 °F 25.4 °F 35.8 °F 100% 30.16 in 10.0 mi NNW 18.4 mph 27.6 mph N/A   Overcast
10:35 PM 35.6 °F 25.2 °F 35.6 °F 100% 30.16 in 10.0 mi NNW 18.4 mph 26.5 mph N/A   Overcast
10:55 PM 35.1 °F 24.5 °F 35.1 °F 100% 30.18 in 1.8 mi NNW 18.4 mph 25.3 mph N/A   Overcast
11:15 PM 34.9 °F 24.9 °F 34.9 °F 100% 30.18 in 5.0 mi NNW 16.1 mph 21.9 mph N/A   Overcast
11:35 PM 34.9 °F 24.6 °F 34.9 °F 100% 30.18 in 0.2 mi NNW 17.3 mph 21.9 mph N/A Fog Fog
11:55 PM 34.7 °F 25.1 °F 34.7 °F 100% 30.19 in 0.2 mi NNW 15.0 mph 20.7 mph N/A Fog Fog